FENGYUN 1C DEB

Satellite information

Favourite Embed

Satellite Type and Status

DEBRISIN ORBIT

Key statistics

Satellite FENGYUN 1C DEB at a glance.

Uptime

9496

Days in orbit

Revolutions

≈ 14.1

Per day

Orbit

SSO

Sun Synchronous Orbit

Inclination

99.1

Latest

Satellite identification and parameters

Extended collection of information and parameters for FENGYUN 1C DEB.

Object identification

Identified? True

Debris? True

Object name: FENGYUN 1C DEB

International designator: 1999-025CVX

Object number (NORAD): 32225

Object ID (CCSDS): 32225

Country: PEOPLES REPUBLIC OF CHINA (PRC)

Current information (Y/N): Y

RCS size: SMALL

Orbital parameters

Period: 101.922 minutes

Inclination: 99.1175 deg

SMA: 7227.808 km

Apoapsis: 902.642 km

Periapsis: 796.704 km

RAAN: 170.8283 deg

Eccentricy: 0.0073285

Argument of periapsis: 108.4697 deg

Mean anomaly: 252.4458 deg

Mean motion: 14.12839618 rev/day

Mean motion (dot): 0.00000531 rev/day2

B* drag term: 0.00030215 1/REarth

Two-line elements (TLE)

Creation date: May 6, 2025, 7:06 a.m.

Reference frame: TEME

Reference center: EARTH

Epoch: May 5, 2025, 10:15 p.m. UTC

TLE line 0: 0 FENGYUN 1C DEB

TLE line 1: 1 32225U 99025CVX 25125.92732927 .00000531 00000-0 30215-3 0 9998

TLE line 2: 2 32225 99.1175 170.8283 0073285 108.4697 252.4458 14.12839618914790

Live tracking on map

Real-time ground track for satellite FENGYUN 1C DEB.

In-orbit conjunctions

A list of the most updated potential collisions computed for object FENGYUN 1C DEB.

Target Orbit TCA Probability of collision Miss distance Type
CZ-6A DEB LEO 2025-03-19 10:15:56 0.0001254414 358.0 (m) DEBRIS

Associated space launch

Chinese polar orbiting meteorological satellite

FENGYUN 1C DEB was lifted into orbit during the mission ‘Long March 4B | Feng Yun 1C’, on board a Long March 4B space rocket.

The launch took place on May 10, 1999, 1:33 a.m. from Launch Complex 7.

For more information about the launch, click the button.

Launch to space Long March 4B | Feng Yun 1C
Long March 4B | Feng Yun 1C

Agency: N/A

Status: Launch Successful

Launch date: May 10, 1999, 1:33 a.m. UTC

Rocket: Long March 4B

Launch pad: Launch Complex 7

Location: Taiyuan Satellite Launch Center, People's Republic of China

...

Latest news about this satellite

There are no fresh news available about this satellite. Check back as we update our databases every day.


Newsletter sign-up

Weekly statistics, charts and insights to help you stay on top of the space industry.